STARLINK-30095, 56289

Orbit data source: Space-Track

STARLINK-30095, 56289 is a payload satellite owned by SpaceX/Seattle (US) in LEO that was launched on Wed, 19 Apr 2023 UTC via an FALCON 9 launch vehicle from the Air Force Eastern Test Range (AFETR). Payload-class satellites include a variety of spacecraft equipped with specific instruments for various scientific and technological missions. These include communications satellites like Starlink; space stations such as the ISS; scientific satellites like the Hubble; Earth observation satellites from companies like Planet Labs, Umbra, and HawkEye 360; GPS; miniature CubeSats for education and research; and military/defense satellites.

Loading next visibility...
Identifier
56289, 2023-056D
Orbit
LEO
Last TLE update
15 hours ago
Origin
Manufacturer
SpaceX/Seattle
Mission
Operational Commercial Communications
Bus & Motor
STARLINK V2M, Unknown motor
Mass
730 kg wet, ~700 kg dry
Launch date (UTC)
2023-04-19 (2 years ago)
Launch vehicle
FALCON 9
Launch site
Air Force Eastern Test Range (AFETR)
Object type
Payload
Rocket body
Debris
Shape & HBR
Box + 2 Pan, 29 m
Radar Cross Section
33.884 m², Large (>1 m²)

Expand to show TLE details & history

TLE from 15 hours ago
0 STARLINK-30095
1 56289U 23056D   25130.42642703  .00003673  00000-0  28662-3 0  9991
2 56289  43.0048  32.1131 0000089 186.7128 173.3713 15.02559892114706
Epoch: 2025-05-10T10:14Z
Definitive object data (Epoch: 2025-05-10T10:14:03.295Z)
Latitude
-0.00003°
Longitude
10.13095°
Altitude
558.846 km
Speed
7.584 km/s
True Right ascension
02h 08m 27s
True Declination
0° 00' 00"
Sunlit
Object was in daylight at TLE epoch
Visualization TLE readout
Latitude
-24.95005°
Longitude
-143.5973°
Altitude
565.076 km
Speed
7.579 km/s
Apparent Right ascension
18h 23m 28s
Apparent Declination
-40° 56' 49"
Sunlit
Object is in full shadow
Visualization observer readout
Local Sidereal Time
09:49:26
Azimuth
108.771° ESE
Elevation
-51.375°
Doppler factor
1
Orbital elements
Apogee altitude
560.991 km
Perigee altitude
560.867 km
Semi-major axis
6,939.066 km
Eccentricity
0.0000089
Inclination
43.0048°
RAAN
32.1131°
Arg. of periapsis
186.7128°
True anomaly
173.37142°
Mean anomaly
173.3713°
Eccentric anomaly
173.37136°
Mean motion
3.75484 °/min
BSTAR
0.00028662
Orbital period
95.88 mins
Loading maneuver chart data...
Loading SW <> Apogee altitude chart data...
Loading historical data...
Loading historical data...
Loading historical data...
Loading historical data...
Loading historical data...
Loading historical data...
Loading historical data...

STARLINK-30095 Visibility forecast

Observer location: undefined°, undefined°

Span
Click to sort rows by Start time (UTC) header in descending order
Start Az.
Max El. time (UTC)
Max El. Az.
Max El.
End time (UTC)
End Az.
7 mins2025-05-11 02:40:30.974Z276.417° WNW2025-05-11 02:44:30.974Z203.572° SW29.11°2025-05-11 02:47:30.974Z149.935° SSE
5 mins2025-05-11 19:56:30.974Z190.824° SSW2025-05-11 19:58:30.974Z148.429° SSE25.375°2025-05-11 20:01:30.974Z92.41° ESE
6 mins2025-05-11 21:36:30.974Z255.109° W2025-05-11 21:38:30.974Z267.073° W42.986°2025-05-11 21:42:30.974Z71.272° E
6 mins2025-05-11 23:17:30.974Z290.592° WNW2025-05-11 23:19:30.974Z337.401° NNW38.508°2025-05-11 23:23:30.974Z77.983° E
6 mins2025-05-12 00:58:30.974Z288.003° WNW2025-05-12 01:00:30.974Z284.474° WNW44.448°2025-05-12 01:04:30.974Z109.755° ESE
|